sat.trackr.live / text

‹ back to catalog

STARLINK-37052

NORAD 68179 · 2026-050N

PAYLOAD ACTIVE UNKNOWN

§ Identity

Operator
Country
US
Launch date
2026-03-14
Launch site
AFETR
Launch vehicle
Mass (kg)
RCS (m²)

Purposes: comms

External: N2YO · Heavens-Above · Gunter

§ Orbital elements

Epoch: 2026-05-24T18:33:39.623328Z

Period
93.58 min
Inclination
53.1570°
Eccentricity
0.0000863
Mean motion
15.38828579 rev/d
Perigee alt
449.0 km
Apogee alt
450.2 km
Semi-major
6,827.7 km
B*
8.3748e-4
RAAN
273.2320°
Arg perigee
109.8036°
Mean anomaly
250.3062°
Rev number
1,233

§ Raw data

STARLINK-370521 68179U 26050N   26144.77337527  .00032383  00000+0  83748-3 0  99932 68179  53.1570 273.2320 0000863 109.8036 250.3062 15.38828579 12330

JSON: /api/v1/satellites/68179 · /tle

For live sub-satellite position, see the globe view (requires WebGL).

§ Visibility from observer

Set your observer location to see the next 7 days of passes ≥ 10°. The values pass through the URL so the page stays shareable.

No JS? Fill the form by hand. The geolocation button needs JavaScript.